Lake Hartwell Weather Center

Moon Phase Calendar



Lake Hartwell Water Level
Online Cameras

 


      

Current Conditions in Reed Creek
3/7/2021 11:28:20 PM

39°F
Feels Like 34
Clear
Humidity
60%
Pressure
30.42"
Wind
1.9 mph (N)
Dew Point
27°F
UV Index
0/10 (Low)
Visibility
6 mi

Hourly Forecast

Date & Time Sun, Mar 7
11:00 PM
Mon, Mar 8
12:00 AM
Mon, Mar 8
1:00 AM
Mon, Mar 8
2:00 AM
Mon, Mar 8
3:00 AM
Mon, Mar 8
4:00 AM
Mon, Mar 8
5:00 AM
Mon, Mar 8
6:00 AM
Mon, Mar 8
7:00 AM
Mon, Mar 8
8:00 AM
Mon, Mar 8
9:00 AM
Mon, Mar 8
10:00 AM
Mon, Mar 8
11:00 AM
Mon, Mar 8
12:00 PM
Mon, Mar 8
1:00 PM
Mon, Mar 8
2:00 PM
Mon, Mar 8
3:00 PM
Mon, Mar 8
4:00 PM
Mon, Mar 8
5:00 PM
Mon, Mar 8
6:00 PM
Mon, Mar 8
7:00 PM
Mon, Mar 8
8:00 PM
Mon, Mar 8
9:00 PM
Mon, Mar 8
10:00 PM
Mon, Mar 8
11:00 PM
Tue, Mar 9
12:00 AM
Tue, Mar 9
1:00 AM
Tue, Mar 9
2:00 AM
Tue, Mar 9
3:00 AM
Tue, Mar 9
4:00 AM
Tue, Mar 9
5:00 AM
Tue, Mar 9
6:00 AM
Tue, Mar 9
7:00 AM
Tue, Mar 9
8:00 AM
Tue, Mar 9
9:00 AM
Tue, Mar 9
10:00 AM
Tue, Mar 9
11:00 AM
Tue, Mar 9
12:00 PM
Tue, Mar 9
1:00 PM
Tue, Mar 9
2:00 PM
Tue, Mar 9
3:00 PM
Tue, Mar 9
4:00 PM
Tue, Mar 9
5:00 PM
Tue, Mar 9
6:00 PM
Tue, Mar 9
7:00 PM
Tue, Mar 9
8:00 PM
Tue, Mar 9
9:00 PM
Tue, Mar 9
10:00 PM
Condition
Clear

Clear

Clear

Clear

Clear

Clear

Clear

Clear

Clear

Clear

Clear

Clear

Clear

Clear

Clear

Clear

Clear

Clear

Clear

Clear

Clear

Clear

Clear

Clear

Clear

Clear

Clear

Clear

Clear

Clear

Clear

Clear

Clear

Clouds

Clouds

Clouds

Clouds

Clouds

Clouds

Clouds

Clouds

Clouds

Clouds

Clouds

Clouds

Clouds

Clouds

Clouds
Temperature 39°F39°F38°F37°F36°F35°F34°F33°F33°F38°F44°F48°F51°F55°F57°F59°F60°F60°F59°F54°F49°F47°F45°F44°F42°F41°F40°F39°F39°F38°F37°F37°F36°F42°F48°F52°F56°F59°F62°F63°F63°F63°F62°F57°F52°F51°F49°F47°F
Feels Like 34°F33°F32°F31°F31°F30°F29°F29°F28°F33°F39°F42°F44°F47°F50°F52°F52°F53°F52°F49°F43°F41°F39°F38°F37°F36°F35°F34°F34°F33°F32°F32°F32°F37°F43°F47°F50°F53°F55°F57°F57°F57°F57°F53°F47°F46°F43°F42°F
Cloudiness 1%1%0%0%0%0%0%0%0%0%0%0%0%0%0%0%0%0%0%0%0%0%0%0%0%1%1%0%0%0%0%0%0%33%44%63%71%78%81%100%100%100%100%90%79%91%46%31%
Visibility 6 mi6 mi6 mi6 mi6 mi6 mi6 mi6 mi6 mi6 mi6 mi6 mi6 mi6 mi6 mi6 mi6 mi6 mi6 mi6 mi6 mi6 mi6 mi6 mi6 mi6 mi6 mi6 mi6 mi6 mi6 mi6 mi6 mi6 mi6 mi6 mi6 mi6 mi6 mi6 mi6 mi6 mi6 mi6 mi6 mi6 mi6 mi6 mi
Precipitation 0%0%0%0%0%0%0%0%0%0%0%0%0%0%0%0%0%0%0%0%0%0%0%0%0%0%0%0%0%0%0%0%0%0%0%0%0%0%0%0%0%0%0%0%0%0%0%0%
Humidity 60%67%72%77%81%82%84%86%88%73%59%52%46%41%38%37%38%40%45%57%59%60%62%65%67%69%71%73%74%75%77%77%79%65%53%46%42%40%38%38%39%41%48%57%60%62%67%69%
Dew Point 27°F29°F30°F30°F30°F24°F24°F23°F22°F24°F27°F29°F30°F32°F33°F34°F35°F36°F38°F40°F36°F34°F33°F33°F33°F32°F31°F30°F30°F29°F28°F27°F26°F29°F31°F32°F34°F35°F36°F37°F38°F40°F42°F42°F39°F39°F39°F38°F
Pressure 30.42"30.45"30.47"30.5"30.5"30.5"30.53"30.56"30.56"30.59"30.59"30.56"30.56"30.56"30.53"30.5"30.47"30.47"30.47"30.5"30.53"30.53"30.53"30.53"30.56"30.56"30.56"30.56"30.56"30.53"30.53"30.56"30.56"30.56"30.59"30.56"30.56"30.53"30.53"30.5"30.47"30.45"30.45"30.45"30.47"30.47"30.5"30.5"
Wind Speed 1.9 mph2.5 mph3.1 mph3.1 mph1.7 mph1.5 mph1.4 mph1 mph0.8 mph0.9 mph1.4 mph3.8 mph5.6 mph6.3 mph7 mph7.4 mph7.9 mph8.1 mph7.6 mph5.8 mph5.9 mph5.7 mph5.3 mph4.7 mph4 mph3.4 mph3 mph2.5 mph2.6 mph2.9 mph2.3 mph2.6 mph2.1 mph2.1 mph1.8 mph2.1 mph3.9 mph5.1 mph5.9 mph6.6 mph6.9 mph7.2 mph6.1 mph4.8 mph4.6 mph4.9 mph5 mph4.5 mph
Wind
Direction
351°
N
340°
NNW
323°
NW
334°
NNW
10°
N
17°
NNE
54°
NE
48°
NE
67°
ENE
96°
E
195°
SSW
231°
SW
232°
SW
228°
SW
226°
SW
229°
SW
224°
SW
218°
SW
213°
SSW
202°
SSW
199°
SSW
205°
SSW
219°
SW
229°
SW
236°
SW
256°
WSW
262°
W
269°
W
278°
W
292°
WNW
294°
WNW
289°
WNW
298°
WNW
289°
WNW
290°
WNW
242°
WSW
226°
SW
229°
SW
232°
SW
227°
SW
221°
SW
222°
SW
219°
SW
212°
SSW
213°
SSW
210°
SSW
210°
SSW
232°
SW

Daily Forecast

Date High Low Precip. Humidity
Today
Mar 7

Clear
58 °F
34 °F
0%
40%
Monday
Mar 8

Clear
61 °F
33 °F
0%
41%
Tuesday
Mar 9

Clouds
63 °F
37 °F
0%
41%
Wednesday
Mar 10

Clear
65 °F
40 °F
0%
41%
Thursday
Mar 11

Clouds
69 °F
45 °F
0%
53%
Friday
Mar 12

Clouds
72 °F
50 °F
0%
57%
Saturday
Mar 13

Clouds
73 °F
52 °F
0%
61%
Sunday
Mar 14

Rain
72 °F
51 °F
100%
53%
Monday
Mar 15

Rain
55 °F
44 °F
100%
61%
Tuesday
Mar 16

Clear
69 °F
36 °F
0%
37%
Wednesday
Mar 17

Clouds
69 °F
45 °F
0%
43%
Thursday
Mar 18

Rain
61 °F
48 °F
100%
96%
Friday
Mar 19

Clear
71 °F
46 °F
28%
38%
Saturday
Mar 20

Rain
66 °F
51 °F
100%
89%
Sunday
Mar 21

Rain
73 °F
59 °F
100%
82%
Monday
Mar 22

Rain
64 °F
49 °F
100%
34%


Temperature 8-14 Day Outlook



Precipitation 8-14 Day Outlook




Quick Links
Lake Hartwell News
Lake Hartwell Photos
Lake Hartwell Videos




About Us
Contact Us
Site Map
Search Site
Advertise With Us
   
www.MyLakeHartwell.com
THE LAKE HARTWELL WEBSITE

Copyright 2021, Lakes Online
Privacy    |    Legal